Regional Weather Roundup
Issued by NWS

Home | Current Version | Previous Version | Graphics & Text | Print | Product List | Glossary On
Versions: 1 2 3 4 5 6 7 8 9 10 11 12 13 14 15 16 17 18 19 20 21 22 23 24 25 26 27 28 29 30 31 32 33 34 35 36 37 38 39 40 41 42 43 44 45 46 47 48 49 50
000
ASUS43 KLMK 041202
RWRKY
KENTUCKY REGIONAL WEATHER ROUNDUP
NATIONAL WEATHER SERVICE LOUISVILLE KY
800 AM EDT FRI SEP 04 2015

NOTE "FAIR" INDICATES FEW OR NO CLOUDS BELOW 12,000 FEET
WITH NO SIGNIFICANT WEATHER AND/OR OBSTRUCTIONS TO VISIBILITY.

KYZ001>023-026-027-061>063-070>075-041300-
WESTERN AND SOUTH CENTRAL KENTUCKY

CITY           SKY/WX    TMP DP  RH WIND       PRES   REMARKS
PADUCAH        FOG       67  65  93 CALM      30.01R VSB 3/4
HENDERSON      CLEAR     66  63  88 CALM      30.01R
OWENSBORO      CLEAR     68  66  93 CALM      30.04R FOG
HOPKINSVILLE   CLEAR     69  66  92 W1        30.02R
BOWLING GREEN  CLEAR     67  64  90 CALM      30.04R FOG
GLASGOW        NOT AVBL
$$

KYZ024-025-028>034-038-045-046-053-041300-
NORTH CENTRAL KENTUCKY

CITY           SKY/WX    TMP DP  RH WIND       PRES   REMARKS
LOUISVILLE/SDF CLEAR     73  68  84 CALM      30.03R HAZE
LOUISVILLE/LOU CLEAR     72  68  87 CALM      30.04R FOG
FORT KNOX      CLEAR     66  64  94 CALM      30.04R FOG
$$

KYZ035>037-039>044-047>052-055>060-089>105-041300-
NORTHEAST KENTUCKY

CITY           SKY/WX    TMP DP  RH WIND       PRES   REMARKS
LEXINGTON      CLEAR     68  65  90 S3        30.06R FOG
COVINGTON      PTCLDY    68  67  96 CALM      30.04R
FRANKFORT      CLEAR     67  64  90 CALM      30.04R FOG
$$

KYZ054-064>069-076>088-106>120-041300-
SOUTHEAST KENTUCKY

CITY           SKY/WX    TMP DP  RH WIND       PRES   REMARKS
JACKSON        CLEAR     68  66  93 CALM      30.08R FOG
LONDON         CLEAR     67  62  84 CALM      30.08R HAZE
SOMERSET       NOT AVBL
MIDDLESBORO    NOT AVBL
MONTICELLO     FOG       63  63 100 CALM      30.09R VSB 1/2
$$




USA.gov is the U.S. government's official web portal to all federal, state and local government web resources and services.